Track GALAXY 23 (TELSTAR 13) now! GALAXY 23 (TELSTAR 13) is classified as:
1 27854U 03034A 21025.62417333 .00000026 00000-0 00000-0 0 9993 2 27854 0.0575 262.9504 0002939 44.2297 281.6420 1.00271336 64000